Location: Ballard
(38.3614°N, 94.1431°W)
Time: 22:57:32
(UTC-06:00)

Envisat - Pass Details

Date: 29 October 2019
Orbit: 764 x 766 km, 98.1° (Epoch: 12 November)

Event Time Altitude Azimuth Distance (km) Brightness Sun altitude
Rises 20:13:47 0° 195° (SSW) 3,216 6.4 -22.7°
Reaches altitude 10° 20:16:24 10° 208° (SSW) 2,295 5.8 -23.2°
Maximum altitude 20:20:39 27° 265° (W) 1,448 5.1 -24.1°
Drops below altitude 10° 20:24:55 10° 322° (NW) 2,307 6.0 -24.9°
Sets 20:27:34 0° 335° (NNW) 3,238 6.6 -25.4°
